Regional Weather Roundup
Issued by NWS

Home | Current Version | Previous Version | Text Only | Print | Product List | Glossary Off
Versions: 1 2 3 4 5 6 7 8 9 10 11 12 13 14 15 16 17 18 19 20 21 22 23 24 25 26 27 28 29 30 31 32 33 34 35 36 37 38 39 40 41 42 43 44 45 46 47 48 49 50

000
ASUS45 KTFX 261404
RWRMT
MONTANA HOURLY WEATHER ROUNDUP
NATIONAL WEATHER SERVICE GREAT FALLS MT
704 AM MST MON JAN 26 2015

NOTE: "FAIR" INDICATES FEW OR NO CLOUDS BELOW 12000 FEET WITH NO
SIGNIFICANT WEATHER AND/OR OBSTRUCTIONS TO VISIBILITY.

* THESE STATIONS ARE NOT UNDER NWS QUALITY CONTROL. THEY DO NOT
   REPORT WEATHER SUCH AS PRECIPITATION OR FOG.

MTZ001>007-043-261500-
WEST OF THE DIVIDE
CITY           SKY/WX    TMP DP  RH WIND       PRES   REMARKS
KALISPELL      FOG       23  21  92 CALM      30.13S VSB M1/4
MISSOULA       PTCLDY    27  25  92 CALM      30.21F
BUTTE          CLEAR     23  19  85 CALM      30.25S
MULLAN PASS    CLOUDY    43  27  53 S10       30.16F
* ANACONDA     PTCLDY    45  27  49 SE10G24    N/A
* ESSEX        N/A       25  24  96 N/A        N/A
* LINCOLN      N/A       21  20  96 NE1        N/A
* LOOKOUT PASS N/A       37  32  82 S2         N/A
* POLSON       N/A       38  30  73 S1         N/A
* RONAN APT    MOCLDY    32  32 100 N/A        N/A
* SEELEY LAKE  N/A       20  18  92 NE2        N/A
* THOMP F APT  MOCLDY    33  31  92 NE4        N/A
* YAAK HILL    N/A       33  31  92 N/A        N/A
$$

MTZ008-052>055-261500-
SOUTHWEST MONTANA
CITY           SKY/WX    TMP DP  RH WIND       PRES   REMARKS
BOZEMAN        CLEAR     25  21  85 SE8       30.23F WCI  16
DILLON         CLEAR     36  27  70 S20       30.27F WCI  25
* W YELLOWSTON PTCLDY    28  27  96 N/A        N/A
* THREE FORKS  CLEAR     36  32  85 N/A        N/A
* BOULDER HILL N/A       39  21  48 SW14       N/A   WCI  31
* MONIDA PASS  N/A       30  30 100 E9         N/A   WCI  22
* RAYNOLDS PAS N/A       28  10  47 SE19G24    N/A   WCI  15
* WHITEHALL    N/A       29  24  82 NW3G11     N/A
* WISE RIVER   N/A       24  21  88 NW4G9      N/A
$$

MTZ009>010-012-014-046-048-049-054-261500-
EAST SLOPES AND CENTRAL MONTANA
CITY           SKY/WX    TMP DP  RH WIND       PRES   REMARKS
CUT BANK       CLOUDY    48  27  44 W15       29.98S
GREAT FALLS    MOCLDY    54  28  37 SW18      30.03S
HELENA         CLEAR     32  27  82 CALM      30.18S
MALMSTROM AFB  CLOUDY    52  28  40 SW24G30   30.04R
* DEARBORN     N/A       51  27  39 SW11G16    N/A
* EAST GLACIER N/A       45  23  42 SW9        N/A
* MONARCH      N/A       52  22  31 SW10G19    N/A
* PENDROY      N/A       46  29  52 W19        N/A
* ROGERS PASS  N/A       44  23  43 SE6G12     N/A
* SWEET GRASS  N/A       52  26  36 W13        N/A
$$

MTZ011-013-016-021-035-040-045-047-050-051-261500-
NORTH CENTRAL MONTANA
CITY           SKY/WX    TMP DP  RH WIND       PRES   REMARKS
HAVRE          CLOUDY    45  32  60 SW16      29.96F
LEWISTOWN      PTCLDY    45  28  51 NW3       30.05S
* N BAR RANCH  CLEAR     43  27  53 NW8       30.07R
* CHESTER      N/A       35  29  79 N/A        N/A
* DENTON       N/A       44  28  53 SW3        N/A
* GEYSER       N/A       58  26  29 SW24G30    N/A
* JUDITH GAP   N/A       49  28  44 W17        N/A
* LOMA         N/A       48  31  52 SW11G16    N/A
$$

MTZ017>020-022>027-061-062-261500-
NORTHEAST MONTANA
CITY           SKY/WX    TMP DP  RH WIND       PRES   REMARKS
GLASGOW        CLEAR     32  28  85 N6        29.95F WCI  26
GLENDIVE       PTCLDY    34  28  79 W9        29.99S WCI  27
JORDAN         CLOUDY    32  28  85 W5        29.99F WCI  27
SIDNEY         CLEAR     30  28  92 CALM      29.98R
WOLF POINT     CLEAR     30  28  92 SW6       29.98R WCI  24
* BEAVER HILL  N/A       36  31  82 W7         N/A   WCI  30
* CIRCLE       N/A       32  29  89 SW8        N/A   WCI  25
* LINDSAY DVD  N/A       39  31  73 W11        N/A   WCI  32
* NAVAJO       N/A       36  27  70 W12        N/A   WCI  28
* SACO         N/A       26  24  92 N/A        N/A
$$

MTZ028>042-056>058-261500-
SOUTHCENTRAL AND SOUTHEAST MONTANA
CITY           SKY/WX    TMP DP  RH WIND       PRES   REMARKS
BAKER          PTCLDY    36  30  79 W10       29.99R WCI  29
BILLINGS       CLEAR     41  28  60 SW17      30.10R
LIVINGSTON     PTCLDY    52  25  35 SW30G43   30.15F
MILES CITY     CLOUDY    37  30  76 W6        30.03R WCI  32
* LAUREL APT   PTCLDY    39  25  57 N/A        N/A
* ROUNDUP APT  PTCLDY    52  27  38 SW13       N/A
* ALZADA       N/A       40  30  68 SW7        N/A   WCI  35
* HYSHAM       N/A       47  26  44 W6G12      N/A
* LAME DEER    N/A       49  28  44 W12G17     N/A
* REED POINT   N/A       53  30  41 W5G11      N/A
* ROSCOE HILL  N/A       56  15  20 S2         N/A
$$

REGIONAL REPORTS...DAKOTAS
CITY           SKY/WX    TMP DP  RH WIND       PRES   REMARKS
WILLISTON      PTCLDY    34  28  79 SW8       29.93R WCI  27
DICKINSON      PTCLDY    34  30  85 W10       29.92R WCI  26
CROSBY         CLEAR     36  32  85 W12       29.91R WCI  28
WATFORD CITY   CLEAR     32  32 100 SW7       29.91R WCI  25
BISMARCK       PTCLDY    37  30  76 NW8       29.88R WCI  31
GRAND FORKS    PTCLDY    36  30  79 NW16G23   29.68R WCI  26
FARGO          CLEAR     34  28  79 W12       29.71R WCI  25
BUFFALO SD     CLEAR     37  30  76 W9        29.92R WCI  30
RAPID CITY     CLEAR     48  28  46 NW6       30.00S
$$

REGIONAL REPORTS...WYOMING/IDAHO/WASHINGTON
CITY           SKY/WX    TMP DP  RH WIND       PRES   REMARKS
GILLETTE       MOCLDY    39  28  65 W9        30.11R WCI  33
SHERIDAN       CLEAR     43  27  53 CALM      30.09S
CODY           CLEAR     30  28  92 NE6       30.20R WCI  24
YELLOWSTONE LA PTCLDY    10   7  88 CALM      30.46S
SALMON         CLOUDY    25  21  85 CALM      30.40F VSB M1/4
MULLAN PASS    CLOUDY    43  27  53 S10       30.16S
SAND POINT     FOG       34  34 100 CALM      30.14S VSB M1/4
SPOKANE        FOG       36  36 100 NE7       30.09F VSB M1/4 WCI  30
$$

REGIONAL REPORTS...SASKATCHEWAN
CITY           SKY/WX    TMP DP  RH WIND       PRES   REMARKS
SWIFT CURRENT  SQUALL    32  28  85 S16G75    29.90S WCI  21

$$



USA.gov is the U.S. government's official web portal to all federal, state and local government web resources and services.